Location: Unspecified
(0.0000°N, 0.0000°E)
Time: 00:03:56
(UTC+00:00)

LightSail 2 - Pass Details

Date: 21 February 2020
Orbit: 698 x 724 km, 24.0° (Epoch: 26 February)

Event Time Altitude Azimuth Distance (km) Brightness Sun altitude
Rises 19:04:39 0° 213° (SSW) 3,068 9.1 -12.5°
Reaches altitude 10° 19:09:11 10° 176° (S) 2,147 7.7 -13.6°
Maximum altitude 19:10:26 11° 161° (SSE) 2,090 7.5 -14.0°
Drops below altitude 10° 19:11:41 10° 147° (SSE) 2,146 7.4 -14.3°
Enters shadow 19:13:11 - 132° (SE) 2,350 7.5 -14.6°
